User: anonymous   Login
Location: Unspecified
(0.0000°N, 0.0000°E)
Time: 05:56:40
(UTC+00:00)
Language:

HO-68 - Orbit

View from above orbital plane
View from above orbital plane
View from above satellite
View from above satellite

Ground track
Ground track

The orbit data is extracted from the following two-line orbital elements,

1 36122U 09072B   15243.71706676 -.00000060  00000-0 -43517-4 0  9999
2 36122 100.1888 285.8071 0006889 308.6728  51.3769 13.16328818274395
Epoch (UTC): 31 August 2015 17:12:34
Eccentricity: 0.0006889
inclination: 100.1888°
perigee height: 1193 km
apogee height: 1204 km
right ascension of ascending node: 285.8071°
argument of perigee: 308.6728°
revolutions per day: 13.16328818
mean anomaly at epoch: 51.3769°
orbit number at epoch: 27439

The dashed part of the orbit path shows where the satellite is in the earth's shadow,  

DLR